Rechercher aéroport 
image banner adimage banner ad
image banner ad

FYGUAM - Guamus

Situé à , Namibia

ICAO - , IATA -

Données fournies par Airmate  

Information générale

Coordonnées: S25°11'52" E18°16'25"
Élévation : 3937 feet MSL.
 
Voir autres Aéroports à Hardap

Données opérationnelles

Accessible au public
Heure actuelle UTC:
Heure actuelle locale:
Météo à : FYML - Mariental ( 75 km )
METAR: FYML 260200Z AUTO 13003KT //// // ////// 26/16 Q1015
Voir NOTAMs / SUP AIP / TFR affectant cet aéroport [VIEW]
Fréquences de communication: [VIEW]

Pistes:

Coordonnées de l'aéroport

Adresse: Namibia

Vue satellite de FYGUAM